Location: Biharia
(46.4333°N, 22.8000°E)
Time: 19:02:26
(UTC+00:00)

CSL-04 Rocket - Pass Details

Date: 30 May 2022
Orbit: 807 x 859 km, 98.9° (Epoch: 28 June)

Event Time Altitude Azimuth Distance (km) Brightness Sun altitude
Rises 19:01:09 0° 195° (SSW) 3,324 6.5 -7.5°
Reaches altitude 10° 19:03:47 10° 207° (SSW) 2,403 5.9 -7.8°
Maximum altitude 19:08:20 28° 266° (W) 1,491 5.5 -8.4°
Drops below altitude 10° 19:12:58 10° 325° (NW) 2,446 7.7 -8.9°
Sets 19:15:40 0° 336° (NNW) 3,394 8.4 -9.3°
